Regional Weather Roundup
Issued by NWS

Home | Current Version | Previous Version | Text Only | Print | Product List | Glossary On
Versions: 1 2 3 4 5 6 7 8 9 10 11 12 13 14 15 16 17 18 19 20 21 22 23 24 25 26 27 28 29 30 31 32 33 34 35 36 37 38 39 40 41 42 43 44 45 46 47 48 49 50
000
ASUS45 KPSR 031210
RWRAZ

ARIZONA HOURLY REGIONAL WEATHER ROUNDUP
NATIONAL WEATHER SERVICE PHOENIX AZ
500 AM MST TUE MAY 03 2016

NOTE: FAIR INDICATES FEW OR NO CLOUDS BELOW 12,000 FEET WITH NO
SIGNIFICANT WEATHER AND/OR OBSTRUCTIONS TO VISIBILITY.

AZZ001>003-036-031300-
NORTHWEST ARIZONA

CITY           SKY/WX    TMP DP  RH WIND       PRES   REMARKS
BULLHEAD CITY  CLEAR     72  37  28 NE14      29.97S
KINGMAN        CLEAR     54  38  54 CALM      30.08R
6HR MIN TEMP:  51; 6HR MAX TEMP:  60;

$$

AZZ004>008-015-016-018-031300-
NORTH CENTRAL ARIZONA

CITY           SKY/WX    TMP DP  RH WIND       PRES   REMARKS
GRAND CANYON   CLEAR     39  33  79 NE9       30.22R WCI  33
6HR MIN TEMP:  30; 6HR MAX TEMP:  39;

WILLIAMS       CLEAR     36  32  87 S9        30.25R WCI  29
PRESCOTT       CLEAR     39  36  89 S6        30.12S WCI  35
6HR MIN TEMP:  39; 6HR MAX TEMP:  47;

FLAGSTAFF      CLEAR     32  31  96 E3        30.20R
6HR MIN TEMP:  29; 6HR MAX TEMP:  34;

PAYSON         CLEAR     50  34  53 NE9       30.13S
PAGE           CLEAR     48  39  71 CALM      30.16R
6HR MIN TEMP:  48; 6HR MAX TEMP:  55;

$$

AZZ009>014-017-031300-
NORTHEAST ARIZONA

CITY           SKY/WX    TMP DP  RH WIND       PRES   REMARKS
WINSLOW        CLEAR     40  38  93 SW3       30.18R
6HR MIN TEMP:  40; 6HR MAX TEMP:  51;

SAINT JOHNS    CLEAR     38  35  89 SW3       30.17R
6HR MIN TEMP:  37; 6HR MAX TEMP:  45;

WINDOW ROCK    PTCLDY    40  35  83 N5        30.22
6HR MIN TEMP:  40; 6HR MAX TEMP:  44;

SHOW LOW       PTCLDY    34  32  93 CALM      30.18S
$$

AZZ023-031300-
GREATER PHOENIX AREA

CITY           SKY/WX    TMP DP  RH WIND       PRES   REMARKS
PHOENIX        CLEAR     65  44  46 SW5       29.90R
6HR MIN TEMP:  65; 6HR MAX TEMP:  78;

BUCKEYE        CLEAR     63  37  39 N7        29.91S
LUKE AFB       CLEAR     60  44  55 NW6       29.90S
6HR MIN TEMP:  60; 6HR MAX TEMP:  73;

DEER VALLEY    CLEAR     63  38  39 N5        29.92R
6HR MIN TEMP:  63; 6HR MAX TEMP:  71;

SCOTTSDALE     CLEAR     71  37  28 N3        29.92S
6HR MIN TEMP:  68; 6HR MAX TEMP:  75;

MESA-GATEWAY   CLEAR     61  43  51 SW3       29.91S
$$

AZZ027-028-031300-
SOUTHWEST MARICOPA COUNTY AND PINAL COUNTY

CITY           SKY/WX    TMP DP  RH WIND       PRES   REMARKS
CASA GRANDE    CLEAR    N/A N/A N/A MISG        N/A
GILA BEND      FAIR      62  36  38 NE3       29.88S
6HR MIN TEMP:  61; 6HR MAX TEMP:  72;

$$

AZZ503-504-507>509-031300-
SOUTHEAST ARIZONA

CITY           SKY/WX    TMP DP  RH WIND       PRES   REMARKS
TUCSON         CLEAR     57  29  34 SE6       29.97R
6HR MIN TEMP:  57; 6HR MAX TEMP:  73;

DAVIS-MONTHAN  CLEAR     55  30  38 SE6       29.95S
6HR MIN TEMP:  55; 6HR MAX TEMP:  71;

NOGALES        CLEAR     47  27  45 NE3       30.00S
6HR MIN TEMP:  47; 6HR MAX TEMP:  61;

SIERRA VISTA   CLEAR     53  29  40 SW3       30.04S
6HR MIN TEMP:  52; 6HR MAX TEMP:  62;

DOUGLAS        CLEAR     46  26  45 CALM      30.02R
6HR MIN TEMP:  45; 6HR MAX TEMP:  58;

SAFFORD        CLEAR     53  29  39 NW6       30.01R
6HR MIN TEMP:  53; 6HR MAX TEMP:  64;

$$

AZZ020-021-025-026-031-031300-
SOUTHWEST ARIZONA

CITY           SKY/WX    TMP DP  RH WIND       PRES   REMARKS
YUMA           CLEAR     72  40  31 N7        29.86R
6HR MIN TEMP:  68; 6HR MAX TEMP:  75;

$$

CAZ031-033-041-043-047-048-061-031300-
SOUTHERN CALIFORNIA

CITY           SKY/WX    TMP DP  RH WIND       PRES   REMARKS
DOWNTOWN L.A.  CLEAR     58  53  84 CALM      29.95R
6HR MIN TEMP:  58; 6HR MAX TEMP:  60;

L.A. AIRPORT   CLEAR     58  54  86 W6        29.95S
6HR MIN TEMP:  58; 6HR MAX TEMP:  60;

SAN DIEGO      PTCLDY    60  55  83 N5        29.97S
6HR MIN TEMP:  60; 6HR MAX TEMP:  63;

BURBANK        CLEAR     59  49  69 CALM      29.94S
6HR MIN TEMP:  59; 6HR MAX TEMP:  62;

ONTARIO        CLEAR     59  51  75 CALM      29.94F
6HR MIN TEMP:  58; 6HR MAX TEMP:  65;

RIVERSIDE      CLEAR     57  51  80 NE3       29.95S
6HR MIN TEMP:  57; 6HR MAX TEMP:  66;

PALM SPRINGS   CLEAR     70  43  37 NW5       29.92S
6HR MIN TEMP:  69; 6HR MAX TEMP:  79;

EL CENTRO NAS  CLEAR    N/A N/A N/A W6        29.88S
IMPERIAL       CLEAR     63  43  48 W6        29.86S
6HR MIN TEMP:  63; 6HR MAX TEMP:  77;

BLYTHE         CLEAR     68  37  32 CALM      29.90R
6HR MIN TEMP:  66; 6HR MAX TEMP:  76;

NEEDLES        CLEAR     71  38  29 N7        29.94S
6HR MIN TEMP:  71; 6HR MAX TEMP:  75;

$$

NVZ020-UTZ003-031300-
SOUTHERN NEVADA-UTAH

CITY           SKY/WX    TMP DP  RH WIND       PRES   REMARKS
LAS VEGAS      CLEAR     62  42  47 S3        30.02R
6HR MIN TEMP:  62; 6HR MAX TEMP:  72;

SALT LAKE CITY CLEAR     47  35  63 SE7       30.20S
6HR MIN TEMP:  46; 6HR MAX TEMP:  55;

$$

NMZ009-TXZ055-031300-
NEW MEXICO-WEST TEXAS

CITY           SKY/WX    TMP DP  RH WIND       PRES   REMARKS
ALBUQUERQUE    PTCLDY    49  38  65 NE7       30.16S
6HR MIN TEMP:  49; 6HR MAX TEMP:  55;

EL PASO        CLEAR     53  31  42 NE5       30.08R
6HR MIN TEMP:  53; 6HR MAX TEMP:  61;

$$


........................KEY........................
SKY/WX - SKY CONDITION/WEATHER
TMP    - TEMPERATURE IN FAHRENHEIT
DP     - DEW POINT IN FAHRENHEIT
RH     - RELATIVE HUMIDITY IN PERCENT
WIND   - DIRECTION AND SPEED IN MILES PER HOUR (MPH)
VRB    - VARIABLE WIND DIRECTION
PRES   - MEAN SEA LEVEL PRESSURE IN INCHES OF MERCURY
         F - FALLING PRESSURE   R - RISING PRESSURE
         S - STEADY PRESSURE
VSB    - VISIBILITY IN MILES
HX     - HEAT INDEX IN FAHRENHEIT
WCI    - WIND CHILL INDEX IN FAHRENHEIT
TC     - TEMPERATURE IN CELSIUS WHICH IS ALSO KNOWN AS
         TEMPERATURE IN CENTIGRADE
AFB    - AIR FORCE BASE
         LUKE AFB IS LUKE AIR FORCE BASE
         DAVIS-MONTHAN IS DAVIS-MONTHAN AIR FORCE BASE
NAS    - NAVAL AIR STATION
         EL CENTRO NAS IS EL CENTRO NAVAL AIR STATION
N/A    - NOT AVAILABLE




USA.gov is the U.S. government's official web portal to all federal, state and local government web resources and services.